New Bedford, MA

5:16 AM EDT on August 24, 2017 (GMT -0400)
New Bedford Regional

Weather History for KEWB - February, 2014

Change the Weather History Date:

Thursday, February 20, 2014

  Actual Average Record
Temperature  
Mean Temperature 40 °F -  
Max Temperature 48 °F 41 °F 54 °F (1953)
Min Temperature 33 °F 26 °F 3 °F (2015)
Degree Days  
Heating Degree Days 24    
Moisture  
Dew Point 27 °F    
Average Humidity 67    
Maximum Humidity 92    
Minimum Humidity 26    
Precipitation  
Precipitation 0.07 in - - ()
Sea Level Pressure  
Sea Level Pressure 30.14 in    
Wind  
Wind Speed 8 mph (WSW)    
Max Wind Speed 12 mph    
Max Gust Speed -    
Visibility 10 miles    
Events Rain    
Averages and records for this station are not official NWS values.
T = Trace of Precipitation, MM = Missing Value Source: NWS Daily Summary

Daily Weather History Graph

Daily Weather History Graph

Search for Another Location

Airport or City:

Trip Planner

Search our weather history database for the weather conditions in past years. The results will help you decide how hot, cold, wet, or windy it might be!

Date:

Astronomy

Feb. 20, 2014 Rise Set
Actual Time 6:32 AM EST 5:23 PM EST
Civil Twilight 6:04 AM EST 5:51 PM EST
Nautical Twilight 5:31 AM EST 6:24 PM EST
Astronomical Twilight 4:59 AM EST 6:56 PM EST
Moon 11:20 PM EST (2/20) 9:08 AM EST (2/20)
Length of Visible Light 11h 47m
Length of Day
10h 51m
Waning Gibbous, 71% of the Moon is Illuminated
Feb 20
Waning Gibbous
Feb 22
Last Quarter
Mar 1
New
Mar 8
First Quarter
Mar 16
Full

Hourly Weather History & Observations

Time (EST) Temp. Windchill Dew Point Humidity Pressure Visibility Wind Dir Wind Speed Gust Speed Precip Events Conditions
12:53 AM 35.1 °F 28.6 °F 33.1 °F 92% 29.87 in 8.0 mi WNW 8.1 mph - N/A   Clear
1:53 AM 37.0 °F 29.3 °F 33.1 °F 86% 29.93 in 10.0 mi WNW 11.5 mph - N/A   Clear
2:53 AM 37.0 °F 29.8 °F 32.0 °F 82% 29.96 in 10.0 mi WNW 10.4 mph - N/A   Clear
3:53 AM 37.0 °F 30.4 °F 30.9 °F 79% 30.02 in 10.0 mi WNW 9.2 mph - N/A   Clear
4:53 AM 36.0 °F 29.0 °F 30.9 °F 82% 30.06 in 10.0 mi West 9.2 mph - N/A   Clear
5:53 AM 35.1 °F 29.3 °F 30.0 °F 82% 30.09 in 10.0 mi WSW 6.9 mph - N/A   Clear
6:53 AM 33.1 °F 26.9 °F 28.0 °F 82% 30.12 in 9.0 mi West 6.9 mph - N/A   Clear
7:53 AM 36.0 °F 28.5 °F 28.0 °F 73% 30.17 in 10.0 mi West 10.4 mph - N/A   Clear
8:53 AM 39.0 °F 33.4 °F 28.0 °F 65% 30.19 in 10.0 mi West 8.1 mph - N/A   Clear
9:53 AM 42.1 °F 36.6 °F 27.0 °F 55% 30.20 in 10.0 mi West 9.2 mph - N/A   Clear
10:53 AM 44.1 °F 41.5 °F 23.0 °F 43% 30.19 in 10.0 mi WSW 4.6 mph - N/A   Clear
11:53 AM 45.0 °F 41.2 °F 24.1 °F 44% 30.20 in 10.0 mi SW 6.9 mph - N/A   Clear
12:53 PM 46.0 °F 42.5 °F 21.9 °F 39% 30.18 in 10.0 mi West 6.9 mph - N/A   Clear
1:53 PM 48.9 °F - 15.1 °F 26% 30.19 in 10.0 mi SW 8.1 mph - N/A   Clear
2:53 PM 46.9 °F - 19.9 °F 34% 30.20 in 10.0 mi SSW 10.4 mph - N/A   Clear
3:53 PM 43.0 °F 38.8 °F 21.0 °F 42% 30.20 in 10.0 mi SSW 6.9 mph - N/A   Clear
4:53 PM 42.1 °F 37.7 °F 24.1 °F 49% 30.22 in 10.0 mi SSW 6.9 mph - N/A   Clear
5:53 PM 39.9 °F 35.8 °F 25.0 °F 55% 30.21 in 10.0 mi South 5.8 mph - N/A   Partly Cloudy
6:53 PM 37.9 °F 33.5 °F 28.9 °F 70% 30.17 in 10.0 mi South 5.8 mph - N/A   Mostly Cloudy
7:53 PM 37.9 °F 35.5 °F 28.9 °F 70% 30.21 in 10.0 mi WSW 3.5 mph - N/A   Overcast
8:53 PM 35.1 °F - 30.9 °F 85% 30.21 in 10.0 mi Calm Calm - 0.00 in Rain Light Rain
9:53 PM 35.1 °F - 32.0 °F 89% 30.20 in 10.0 mi Calm Calm - 0.00 in Rain Light Rain
10:53 PM 35.1 °F 32.2 °F 32.0 °F 89% 30.17 in 8.0 mi NE 3.5 mph - 0.01 in Rain Light Rain
11:53 PM 34.0 °F 29.8 °F 32.0 °F 92% 30.15 in 6.0 mi NE 4.6 mph - 0.06 in Rain Light Rain